YZ-1 R/B

Last updated on Jan. 15, 2020, 12:02 a.m. UTC

1 44866U 19090C   20014.05561909  .00000021  00000-0  00000+0 0  9991
2 44866  54.8424 141.3410 0078180 350.0312   9.7785  1.78360567   503
UTC
Height (km)
Latitude
Longitude
Inclination
Orbital Period
UTC large
Height (km)
Speed (km/s)
/
Latitude / Longitude
Inclination (degrees)
Orbital Period (minutes)
Azimuth
Elevation
Range (km)
Doppler Factor
iOS Compass Heading
iOS Angle

Next 30 passes for location: Hong Kong

Rise time Rise Azimuth (degrees) Set time Set Azimuth (degrees) Duration Max altitude (degrees)

No matching passes for this satellites